TimeEDT,TemperatureF,Dew PointF,Humidity,Sea Level PressureIn,VisibilityMPH,Wind Direction,Wind SpeedMPH,Gust SpeedMPH,PrecipitationIn,Events,Conditions,WindDirDegrees,DateUTC
12:15 AM,44.6,28.4,53,30.02,10.0,Calm,Calm,-,N/A,,Clear,0,2014-03-16 04:15:00
12:35 AM,46.4,28.4,50,30.02,10.0,Calm,Calm,-,N/A,,Clear,0,2014-03-16 04:35:00
12:55 AM,50.0,26.6,40,30.03,10.0,Calm,Calm,-,N/A,,Clear,0,2014-03-16 04:55:00
1:15 AM,48.2,26.6,43,30.02,10.0,Calm,Calm,-,N/A,,Clear,0,2014-03-16 05:15:00
1:35 AM,46.4,26.6,46,30.01,10.0,Calm,Calm,-,N/A,,Clear,0,2014-03-16 05:35:00
2:15 AM,50.0,24.8,37,29.99,10.0,Calm,Calm,-,N/A,,Clear,0,2014-03-16 06:15:00
2:35 AM,50.0,24.8,37,29.99,10.0,Calm,Calm,-,N/A,,Clear,0,2014-03-16 06:35:00
2:55 AM,50.0,24.8,37,29.99,10.0,Calm,Calm,-,N/A,,Clear,0,2014-03-16 06:55:00
3:15 AM,50.0,26.6,40,29.99,10.0,Calm,Calm,-,N/A,,Clear,0,2014-03-16 07:15:00
3:35 AM,50.0,26.6,40,29.98,10.0,Calm,Calm,-,N/A,,Clear,0,2014-03-16 07:35:00
3:55 AM,50.0,24.8,37,29.98,10.0,Calm,Calm,-,N/A,,Clear,0,2014-03-16 07:55:00
4:15 AM,51.8,24.8,35,29.96,10.0,Calm,Calm,-,N/A,,Clear,0,2014-03-16 08:15:00
4:35 AM,50.0,26.6,40,29.96,10.0,Calm,Calm,-,N/A,,Scattered Clouds,0,2014-03-16 08:35:00
4:55 AM,50.0,26.6,40,29.95,10.0,East,3.5,-,N/A,,Overcast,80,2014-03-16 08:55:00
5:15 AM,50.0,26.6,40,29.94,10.0,NE,3.5,-,N/A,,Overcast,50,2014-03-16 09:15:00
5:35 AM,51.8,26.6,38,29.93,10.0,ENE,4.6,-,N/A,,Overcast,60,2014-03-16 09:35:00
5:55 AM,50.0,26.6,40,29.91,10.0,ENE,4.6,-,N/A,,Mostly Cloudy,60,2014-03-16 09:55:00
6:15 AM,50.0,26.6,40,29.91,10.0,NE,4.6,-,N/A,,Overcast,50,2014-03-16 10:15:00
6:35 AM,50.0,26.6,40,29.91,10.0,NE,4.6,-,N/A,,Overcast,50,2014-03-16 10:35:00
6:55 AM,50.0,28.4,43,29.91,10.0,ENE,5.8,-,N/A,,Overcast,60,2014-03-16 10:55:00
7:15 AM,50.0,26.6,40,29.90,10.0,ENE,4.6,-,N/A,,Overcast,60,2014-03-16 11:15:00
7:35 AM,48.2,28.4,46,29.90,10.0,NE,8.1,-,N/A,,Overcast,50,2014-03-16 11:35:00
7:55 AM,46.4,28.4,50,29.91,10.0,ENE,5.8,-,N/A,,Overcast,60,2014-03-16 11:55:00
8:15 AM,46.4,28.4,50,29.91,10.0,NE,4.6,-,N/A,,Overcast,50,2014-03-16 12:15:00
8:35 AM,46.4,28.4,50,29.93,10.0,ENE,5.8,-,N/A,Rain,Light Rain,70,2014-03-16 12:35:00
8:55 AM,46.4,28.4,50,29.93,10.0,ENE,4.6,-,N/A,Rain,Rain,70,2014-03-16 12:55:00
9:15 AM,44.6,30.2,57,29.93,10.0,East,6.9,-,N/A,Rain,Light Rain,80,2014-03-16 13:15:00
9:35 AM,44.6,32.0,61,29.94,10.0,ENE,5.8,-,N/A,Rain,Light Rain,70,2014-03-16 13:35:00
9:55 AM,42.8,32.0,66,29.95,10.0,ENE,6.9,-,N/A,Rain,Light Rain,60,2014-03-16 13:55:00
10:15 AM,42.8,32.0,66,29.95,10.0,East,5.8,-,0.01,Rain,Light Rain,80,2014-03-16 14:15:00
10:35 AM,41.0,33.8,76,29.95,10.0,ENE,4.6,-,0.02,Rain,Light Rain,70,2014-03-16 14:35:00
10:55 AM,41.0,33.8,76,29.95,10.0,ENE,5.8,-,0.03,Rain,Light Rain,60,2014-03-16 14:55:00
11:15 AM,39.2,33.8,81,29.92,10.0,ENE,9.2,-,0.02,Rain,Light Rain,60,2014-03-16 15:15:00
11:35 AM,39.2,33.8,81,29.89,10.0,ENE,13.8,23.0,0.03,Rain,Light Rain,70,2014-03-16 15:35:00
11:55 AM,39.2,33.8,81,29.90,10.0,NE,10.4,18.4,0.04,Rain,Light Rain,50,2014-03-16 15:55:00
12:15 PM,39.2,35.6,87,29.89,10.0,ENE,8.1,16.1,0.01,Rain,Light Rain,70,2014-03-16 16:15:00
12:35 PM,39.2,35.6,87,29.89,10.0,ENE,9.2,18.4,0.01,Rain,Light Rain,60,2014-03-16 16:35:00
12:55 PM,39.2,35.6,87,29.89,10.0,NE,15.0,-,0.02,Rain,Light Rain,50,2014-03-16 16:55:00
1:15 PM,37.4,35.6,93,29.88,10.0,NE,18.4,21.9,N/A,Rain,Light Rain,40,2014-03-16 17:15:00
1:35 PM,37.4,35.6,93,29.88,7.0,NE,16.1,23.0,0.01,Rain,Light Rain,40,2014-03-16 17:35:00
1:55 PM,37.4,37.4,100,29.86,7.0,NE,15.0,23.0,0.02,Rain,Light Rain,40,2014-03-16 17:55:00
2:15 PM,37.4,35.6,93,29.85,7.0,NE,15.0,24.2,N/A,,Drizzle,50,2014-03-16 18:15:00
2:55 PM,37.4,35.6,93,29.81,7.0,ENE,13.8,27.6,N/A,Rain,Light Rain,60,2014-03-16 18:55:00
3:15 PM,37.4,35.6,93,29.82,5.0,NE,13.8,23.0,N/A,,Drizzle,50,2014-03-16 19:15:00
3:35 PM,37.4,35.6,93,29.81,3.0,ENE,11.5,18.4,N/A,Rain,Light Rain,60,2014-03-16 19:35:00
3:55 PM,37.4,35.6,93,29.79,3.0,ENE,12.7,20.7,0.01,Rain,Light Rain,60,2014-03-16 19:55:00
4:15 PM,37.4,35.6,93,29.80,4.0,NE,15.0,-,N/A,Rain,Light Rain,50,2014-03-16 20:15:00
4:30 PM,37.4,35.6,93,29.79,7.0,NE,15.0,23.0,N/A,,Drizzle,50,2014-03-16 20:30:00
4:55 PM,35.6,35.6,100,29.79,4.0,ENE,12.7,18.4,0.01,Rain,Light Rain,60,2014-03-16 20:55:00
5:15 PM,35.6,35.6,100,29.79,3.0,ENE,12.7,17.3,N/A,Rain,Light Rain,60,2014-03-16 21:15:00
5:35 PM,35.6,35.6,100,29.79,3.0,NE,12.7,17.3,N/A,Rain,Light Rain,50,2014-03-16 21:35:00
5:55 PM,35.6,35.6,100,29.78,3.0,ENE,10.4,18.4,N/A,,Drizzle,60,2014-03-16 21:55:00
6:15 PM,35.6,35.6,100,29.78,3.0,ENE,11.5,21.9,0.01,Rain,Light Rain,60,2014-03-16 22:15:00
6:35 PM,35.6,35.6,100,29.78,2.5,NE,13.8,21.9,0.04,Rain,Light Rain,50,2014-03-16 22:35:00
6:55 PM,35.6,33.8,93,29.79,4.0,ENE,9.2,13.8,0.06,Rain,Light Rain,60,2014-03-16 22:55:00
7:15 PM,35.6,33.8,93,29.80,4.0,NE,13.8,20.7,0.01,Rain,Light Rain,40,2014-03-16 23:15:00
7:35 PM,35.6,33.8,93,29.83,5.0,NE,11.5,-,0.02,Rain,Light Rain,40,2014-03-16 23:35:00
7:55 PM,33.8,33.8,100,29.82,4.0,NE,10.4,-,0.03,Rain,Rain,50,2014-03-16 23:55:00
8:15 PM,33.8,33.8,100,29.83,5.0,NE,13.8,19.6,0.01,Rain,Light Rain,50,2014-03-17 00:15:00
8:35 PM,33.8,32.0,93,29.84,7.0,NNE,11.5,-,0.01,Rain,Rain,30,2014-03-17 00:35:00
8:55 PM,33.8,32.0,93,29.84,7.0,NE,9.2,-,0.01,,Drizzle,50,2014-03-17 00:55:00
9:15 PM,33.8,32.0,93,29.85,7.0,NE,13.8,-,N/A,Rain,Light Rain,50,2014-03-17 01:15:00
9:35 PM,33.8,32.0,93,29.85,5.0,ENE,9.2,19.6,N/A,,Drizzle,70,2014-03-17 01:35:00
9:55 PM,33.8,32.0,93,29.84,7.0,ENE,10.4,-,N/A,,Drizzle,60,2014-03-17 01:55:00
10:15 PM,32.0,32.0,100,29.84,10.0,NE,10.4,16.1,N/A,,Light Drizzle,50,2014-03-17 02:15:00
10:35 PM,32.0,32.0,100,29.85,4.0,NE,9.2,-,0.02,Rain,Light Rain,50,2014-03-17 02:35:00
10:55 PM,32.0,32.0,100,29.85,7.0,NE,11.5,16.1,0.03,,Overcast,50,2014-03-17 02:55:00
11:15 PM,32.0,32.0,100,29.85,10.0,NE,12.7,-,N/A,,Overcast,40,2014-03-17 03:15:00
11:35 PM,32.0,32.0,100,29.86,7.0,NE,9.2,-,N/A,,Overcast,40,2014-03-17 03:35:00
11:55 PM,32.0,32.0,100,29.85,7.0,NE,11.5,-,0.01,,Overcast,50,2014-03-17 03:55:00